When you browse on this site, cookies collect data to enhance your experience and personalize the content and advertising you see.
Visit our Privacy Policy to learn more. By continuing to use the site, you agree to this use of cookies and data.
  • In Latvia
  • List of Countries
  • For 7 days
  • Water Temperature
  • Weather Map
  • Weather Widgets
  • user-avatar
    Login

    Hourly Weather Koniz

    Today, 23 September, Monday

    Time Temperature Precipitation Wind Pressure Humidity
    00:00 +13°C° 0 mm 2 mps 707 mmHg 97%
    01:00 +13°C° 1.1 mm 2 mps 707 mmHg 97%
    02:00 +13°C° 1.1 mm 1 mps 707 mmHg 96%
    03:00 +13°C° 1.1 mm 1 mps 707 mmHg 96%
    04:00 +13°C° 0.2 mm 1 mps 707 mmHg 96%
    05:00 +13°C° 0.2 mm 1 mps 707 mmHg 96%
    06:00 +13°C° 0 mm 1 mps 708 mmHg 95%
    07:00 +13°C° 0.4 mm 1 mps 708 mmHg 93%
    08:00 +14°C° 0.4 mm 1 mps 708 mmHg 90%
    09:00 +15°C° 0.4 mm 1 mps 709 mmHg 87%
    10:00 +16°C° 0.2 mm 1 mps 709 mmHg 81%
    11:00 +18°C° 0.2 mm 1 mps 709 mmHg 74%
    12:00 +19°C° 0 mm 1 mps 709 mmHg 67%
    13:00 +19°C° 0.1 mm 1 mps 709 mmHg 67%
    14:00 +19°C° 0.1 mm 1 mps 709 mmHg 66%
    15:00 +19°C° 0.1 mm 1 mps 708 mmHg 66%
    16:00 +16°C° 0.1 mm 1 mps 708 mmHg 75%
    17:00 +14°C° 0.1 mm 1 mps 708 mmHg 83%
    18:00 +12°C° 0.1 mm 1 mps 708 mmHg 92%
    19:00 +12°C° 0 mm 1 mps 709 mmHg 92%
    20:00 +11°C° 0 mm 1 mps 709 mmHg 93%
    21:00 +11°C° 0 mm 1 mps 709 mmHg 93%
    22:00 +10°C° 0 mm 1 mps 709 mmHg 93%
    23:00 +9°C° 0 mm 0 mps 709 mmHg 92%

    Tomorrow, 24 September, Tuesday

    Time Temperature Precipitation Wind Pressure Humidity
    00:00 +9°C° 0 mm 0 mps 709 mmHg 92%
    01:00 +10°C° 0 mm 1 mps 708 mmHg 92%
    02:00 +10°C° 0 mm 1 mps 708 mmHg 91%
    03:00 +9°C° 0 mm 1 mps 708 mmHg 91%
    04:00 +10°C° 0 mm 1 mps 707 mmHg 90%
    05:00 +9°C° 0 mm 0 mps 707 mmHg 89%
    06:00 +9°C° 0 mm 0 mps 706 mmHg 87%
    07:00 +11°C° 0 mm 0 mps 706 mmHg 81%
    08:00 +13°C° 0 mm 0 mps 706 mmHg 75%
    09:00 +15°C° 0 mm 0 mps 706 mmHg 69%
    10:00 +16°C° 0.1 mm 1 mps 706 mmHg 72%
    11:00 +16°C° 0.1 mm 1 mps 706 mmHg 76%
    12:00 +15°C° 0.1 mm 1 mps 706 mmHg 79%
    13:00 +15°C° 0 mm 2 mps 706 mmHg 79%
    14:00 +15°C° 0 mm 2 mps 706 mmHg 79%
    15:00 +14°C° 0 mm 3 mps 706 mmHg 79%
    16:00 +15°C° 0.4 mm 2 mps 706 mmHg 83%
    17:00 +14°C° 0.4 mm 2 mps 706 mmHg 88%
    18:00 +13°C° 0.4 mm 2 mps 705 mmHg 93%
    19:00 +13°C° 0.2 mm 2 mps 706 mmHg 93%
    20:00 +13°C° 0.2 mm 2 mps 706 mmHg 94%
    21:00 +12°C° 0.2 mm 2 mps 706 mmHg 94%
    22:00 +13°C° 0.1 mm 2 mps 705 mmHg 94%
    23:00 +13°C° 0.1 mm 2 mps 705 mmHg 94%

    Day after tomorrow, 25 September, Wednesday

    Time Temperature Precipitation Wind Pressure Humidity
    00:00 +13°C° 0.1 mm 2 mps 705 mmHg 94%
    01:00 +13°C° 0.1 mm 2 mps 705 mmHg 94%
    02:00 +13°C° 0.1 mm 2 mps 705 mmHg 94%
    03:00 +13°C° 0.1 mm 2 mps 705 mmHg 94%
    04:00 +12°C° 0.2 mm 2 mps 705 mmHg 94%
    05:00 +12°C° 0.2 mm 2 mps 705 mmHg 94%
    06:00 +12°C° 0.2 mm 2 mps 705 mmHg 94%
    07:00 +12°C° 0.2 mm 3 mps 705 mmHg 90%
    08:00 +13°C° 0.2 mm 3 mps 705 mmHg 86%
    09:00 +14°C° 0.2 mm 3 mps 706 mmHg 83%
    10:00 +14°C° 0.3 mm 4 mps 706 mmHg 80%
    11:00 +15°C° 0.3 mm 4 mps 705 mmHg 76%
    12:00 +15°C° 0.3 mm 4 mps 705 mmHg 73%
    13:00 +15°C° 0.3 mm 4 mps 705 mmHg 73%
    14:00 +15°C° 0.3 mm 4 mps 705 mmHg 72%
    15:00 +15°C° 0.3 mm 4 mps 705 mmHg 72%
    16:00 +14°C° 0.1 mm 3 mps 705 mmHg 76%
    17:00 +13°C° 0.1 mm 3 mps 705 mmHg 80%
    18:00 +13°C° 0.1 mm 2 mps 706 mmHg 84%
    19:00 +12°C° 0.1 mm 2 mps 706 mmHg 86%
    20:00 +12°C° 0.1 mm 2 mps 706 mmHg 87%
    21:00 +12°C° 0.1 mm 2 mps 707 mmHg 89%
    22:00 +12°C° 0.1 mm 2 mps 707 mmHg 89%
    23:00 +12°C° 0.1 mm 2 mps 706 mmHg 89%

    26 September, Thursday

    Time Temperature Precipitation Wind Pressure Humidity
    00:00 +12°C° 0.1 mm 2 mps 706 mmHg 90%
    01:00 +12°C° 0.5 mm 2 mps 707 mmHg 91%
    02:00 +12°C° 0.5 mm 2 mps 707 mmHg 92%
    03:00 +12°C° 0.5 mm 2 mps 707 mmHg 93%
    04:00 +12°C° 0.3 mm 2 mps 707 mmHg 94%
    05:00 +12°C° 0.3 mm 2 mps 707 mmHg 94%
    06:00 +12°C° 0.3 mm 2 mps 708 mmHg 95%
    07:00 +13°C° 0.2 mm 2 mps 708 mmHg 94%
    08:00 +13°C° 0.2 mm 2 mps 708 mmHg 93%
    09:00 +14°C° 0.2 mm 1 mps 709 mmHg 92%
    10:00 +15°C° 0 mm 2 mps 709 mmHg 86%
    11:00 +17°C° 0 mm 2 mps 709 mmHg 80%
    12:00 +18°C° 0 mm 2 mps 709 mmHg 74%
    13:00 +18°C° 0 mm 2 mps 709 mmHg 73%
    14:00 +18°C° 0 mm 2 mps 709 mmHg 73%
    15:00 +19°C° 0 mm 2 mps 709 mmHg 72%
    16:00 +18°C° 0 mm 1 mps 709 mmHg 79%
    17:00 +15°C° 0 mm 1 mps 709 mmHg 85%
    18:00 +14°C° 0 mm 1 mps 709 mmHg 91%
    19:00 +13°C° 0 mm 1 mps 709 mmHg 91%
    20:00 +13°C° 0 mm 1 mps 709 mmHg 92%
    21:00 +13°C° 0 mm 1 mps 710 mmHg 92%
    22:00 +12°C° 0 mm 1 mps 710 mmHg 91%
    23:00 +12°C° 0 mm 1 mps 710 mmHg 91%

    27 September, Friday

    Time Temperature Precipitation Wind Pressure Humidity
    00:00 +12°C° 0 mm 1 mps 710 mmHg 90%
    01:00 +12°C° 0 mm 1 mps 709 mmHg 91%
    02:00 +12°C° 0 mm 1 mps 709 mmHg 91%
    03:00 +12°C° 0 mm 1 mps 709 mmHg 91%
    04:00 +12°C° 0 mm 1 mps 709 mmHg 91%
    05:00 +12°C° 0 mm 1 mps 709 mmHg 90%
    06:00 +12°C° 0 mm 1 mps 709 mmHg 90%
    07:00 +14°C° 0 mm 1 mps 709 mmHg 84%
    08:00 +16°C° 0 mm 2 mps 710 mmHg 78%
    09:00 +18°C° 0 mm 2 mps 710 mmHg 73%
    10:00 +19°C° 0 mm 2 mps 710 mmHg 68%
    11:00 +20°C° 0 mm 3 mps 710 mmHg 63%
    12:00 +21°C° 0 mm 3 mps 710 mmHg 58%
    13:00 +21°C° 0 mm 3 mps 710 mmHg 59%
    14:00 +21°C° 0 mm 2 mps 710 mmHg 61%
    15:00 +20°C° 0 mm 2 mps 709 mmHg 62%
    16:00 +18°C° 0 mm 2 mps 709 mmHg 71%
    17:00 +16°C° 0 mm 1 mps 709 mmHg 79%
    18:00 +15°C° 0 mm 1 mps 709 mmHg 87%
    19:00 +14°C° 0 mm 1 mps 709 mmHg 88%
    20:00 +14°C° 0 mm 1 mps 710 mmHg 88%
    21:00 +13°C° 0 mm 1 mps 710 mmHg 89%
    22:00 +13°C° 0 mm 1 mps 710 mmHg 88%
    23:00 +13°C° 0 mm 1 mps 710 mmHg 87%

    28 September, Saturday

    Time Temperature Precipitation Wind Pressure Humidity
    00:00 +13°C° 0 mm 1 mps 710 mmHg 86%
    01:00 +13°C° 0 mm 1 mps 710 mmHg 88%
    02:00 +13°C° 0 mm 1 mps 710 mmHg 89%
    03:00 +13°C° 0 mm 1 mps 710 mmHg 90%
    04:00 +13°C° 0 mm 1 mps 710 mmHg 90%
    05:00 +13°C° 0 mm 1 mps 710 mmHg 89%
    06:00 +13°C° 0 mm 1 mps 710 mmHg 89%
    07:00 +14°C° 0 mm 1 mps 711 mmHg 85%
    08:00 +15°C° 0 mm 1 mps 711 mmHg 81%
    09:00 +16°C° 0 mm 1 mps 711 mmHg 78%
    10:00 +18°C° 0 mm 1 mps 711 mmHg 74%
    11:00 +18°C° 0 mm 2 mps 711 mmHg 70%
    12:00 +19°C° 0 mm 2 mps 710 mmHg 65%
    13:00 +20°C° 0 mm 1 mps 710 mmHg 65%
    14:00 +20°C° 0 mm 1 mps 710 mmHg 65%
    15:00 +21°C° 0 mm 1 mps 710 mmHg 65%
    16:00 +19°C° 0 mm 1 mps 709 mmHg 73%
    17:00 +16°C° 0 mm 1 mps 709 mmHg 82%
    18:00 +14°C° 0 mm 1 mps 709 mmHg 90%
    19:00 +13°C° 0 mm 1 mps 709 mmHg 91%
    20:00 +12°C° 0 mm 1 mps 709 mmHg 91%
    21:00 +12°C° 0 mm 1 mps 709 mmHg 92%
    22:00 +12°C° 0 mm 1 mps 708 mmHg 91%
    23:00 +11°C° 0 mm 1 mps 708 mmHg 91%
    Show more